Location: Caltech
(34.1382°N, 118.1253°W)
Time: 09:01:30
(UTC-07:00)

Iridium 72 - Visible Passes

Search period start: 26 July 2016 00:00
Search period end: 05 August 2016 00:00
Orbit: 776 x 779 km, 86.4° (Epoch: 25 July)

Date Brightness Start Highest point End Pass type
(mag) Time Alt. Az. Time Alt. Az. Time Alt. Az.
26 Jul 7.5 03:47:00 10° SE 03:51:13 26° E 03:55:26 10° NNE visible
26 Jul 6.5 05:27:16 10° SW 05:31:45 29° W 05:36:15 10° NNW visible
27 Jul 8.2 03:15:39 10° ESE 03:18:00 13° E 03:20:21 10° NE visible
27 Jul 5.6 04:53:01 10° SSW 04:58:07 56° W 05:03:15 10° N visible
28 Jul 5.7 04:20:06 14° S 04:24:36 75° E 04:29:49 10° N visible
29 Jul 6.8 03:47:12 14° SSE 03:51:12 38° E 03:55:59 10° NNE visible
29 Jul 6.9 05:28:16 10° SW 05:32:00 20° W 05:35:44 10° NNW visible
30 Jul 7.8 03:14:16 10° SE 03:17:55 20° E 03:21:36 10° NE visible
30 Jul 6.1 04:54:46 17° SW 04:58:17 37° W 05:03:07 10° NNW visible
31 Jul 5.4 04:21:49 27° SSW 04:24:42 74° W 04:29:55 10° N visible
01 Aug 6.0 03:48:50 30° SSE 03:51:14 57° E 03:56:20 10° N visible
01 Aug 7.4 05:29:55 10° WSW 05:32:17 13° WNW 05:34:40 10° NW visible
02 Aug 7.1 03:15:50 22° ESE 03:17:52 29° E 03:22:19 10° NNE visible
02 Aug 6.6 04:56:19 19° WSW 04:58:30 25° W 05:02:47 10° NNW visible
03 Aug 7.9 02:42:47 13° ESE 02:44:38 15° E 02:47:33 10° NE visible
03 Aug 5.8 04:23:18 37° SW 04:24:50 49° W 04:29:53 10° N visible
04 Aug 5.4 03:50:14 58° S 03:51:18 86° E 03:56:32 10° N visible
